Regional Weather Roundup
Issued by NWS

Home | Current Version | Previous Version | Text Only | Print | Product List | Glossary Off
Versions: 1 2 3 4 5 6 7 8 9 10 11 12 13 14 15 16 17 18 19 20 21 22 23 24 25 26 27 28 29 30 31 32 33 34 35 36 37 38 39 40 41 42 43 44 45 46 47 48 49 50

021
ASUS43 KDTX 011810
RWRMI
MICHIGAN HOURLY REGIONAL WEATHER ROUNDUP
NATIONAL WEATHER SERVICE DETROIT/PONTIAC MI
200 PM EDT SUN MAY 01 2016

NOTE: "FAIR" INDICATES FEW OR NO CLOUDS BELOW 12,000 FEET WITH NO
SIGNIFICANT WEATHER AND/OR OBSTRUCTION TO VISIBILITY.

MIZ047>049-052>055-059>063-066>070-074>076-081>083-011900-
SOUTHEAST LOWER MICHIGAN

CITY           SKY/WX    TMP DP  RH WIND       PRES   REMARKS
ADRIAN         CLOUDY    52  50  93 NE5       29.98S
6HR MIN TEMP:  48; 6HR MAX TEMP:  52;

ALMA           CLOUDY    47  45  93 N10G24    30.04R
ANN ARBOR      CLOUDY    51  49  92 NE3       29.98S
BAD AXE        CLOUDY    44  43  96 NE9G17    30.05S FOG
CARO           CLOUDY    49  45  84 NE6       30.02R
DETROIT CITY   CLOUDY    51  46  83 N3        29.99R
6HR MIN TEMP:  47; 6HR MAX TEMP:  51;

DETROIT        DRIZZLE   51  49  92 N7        29.99R FOG
6HR MIN TEMP:  49; 6HR MAX TEMP:  51; 6HR PCP: TRACE;

FLINT          CLOUDY    52  46  80 NE9       30.01S
6HR MIN TEMP:  47; 6HR MAX TEMP:  52; 6HR PCP:  0.01;

GROSSE ILE     CLOUDY    54  50  87 NE7       29.97S FOG
HILLSDALE      CLOUDY    51  51  99 NE5       29.97R
6HR MIN TEMP:  47; 6HR MAX TEMP:  51;

HOWELL         CLOUDY    48  47  97 NE7       29.99S

CITY           SKY/WX    TMP DP  RH WIND       PRES   REMARKS
JACKSON        CLOUDY    50  48  93 N5        29.98S
6HR MIN TEMP:  47; 6HR MAX TEMP:  50;

LAMBERTVILLE   CLOUDY    54  52  93 CALM      29.97F
6HR MIN TEMP:  50; 6HR MAX TEMP:  54;

LANSING        CLOUDY    48  46  93 NE10      30.01S FOG
6HR MIN TEMP:  45; 6HR MAX TEMP:  48; 6HR PCP:  0.02;

LAPEER         CLOUDY    48  46  91 NE8       30.00S
6HR MIN TEMP:  44; 6HR MAX TEMP:  48;

MASON          CLOUDY    48  46  95 NE7       29.99S
MONROE         CLOUDY    52  51  95 NE6       29.97F FOG
6HR MIN TEMP:  49; 6HR MAX TEMP:  52;

MT. CLEMENS    CLOUDY    51  51 100 NE3       29.98R
6HR MIN TEMP:  47; 6HR MAX TEMP:  51;

PONTIAC        CLOUDY    49  46  90 N5        29.98R
6HR MIN TEMP:  47; 6HR MAX TEMP:  49; 6HR PCP: TRACE;

PORT HOPE        N/A     43  40  89 NE15      30.04S
6HR MIN TEMP:  42; 6HR MAX TEMP:  43;

PORT HURON     CLOUDY    50  46  87 N7        29.99R
TRI CITIES     CLOUDY    51  45  79 NE16G23   30.04S
6HR MIN TEMP:  46; 6HR MAX TEMP:  51; 6HR PCP:  0.02;

MIDLAND        CLOUDY    47  44  89 NE12      30.04F FOG
6HR MIN TEMP:  44; 6HR MAX TEMP:  48;

TROY           CLOUDY    51  48  90 N6        30.00S
SAGINAW HB     CLOUDY    50  45  81 NE14      30.01F
$$
MIZ043>046-050>051-056>058-064>065-071>073-077>080-011900-
SOUTHWEST LOWER MICHIGAN

CITY           SKY/WX    TMP DP  RH WIND       PRES   REMARKS
BATTLE CREEK   CLOUDY    50  46  86 NE9       29.99S
6HR MIN TEMP:  46; 6HR MAX TEMP:  50;

BENTON HARBOR  CLOUDY    54  47  77 E7        29.98S
6HR MIN TEMP:  48; 6HR MAX TEMP:  54;

BIG RAPIDS     CLOUDY    48  45  87 NE9       30.03F FOG
6HR MIN TEMP:  43; 6HR MAX TEMP:  49;

COLDWATER      CLOUDY    53  50  92 N7        29.97S
6HR MIN TEMP:  48; 6HR MAX TEMP:  53;

FREMONT        CLOUDY    52  43  72 E10       30.02S
HOLLAND        CLOUDY    51  46  83 E9        30.01R
6HR MIN TEMP:  46; 6HR MAX TEMP:  52; 6HR PCP:  0.01;

GRAND RAPIDS   CLOUDY    51  46  83 NE17      29.99F
6HR MIN TEMP:  47; 6HR MAX TEMP:  51; 6HR PCP:  0.02;

IONIA          CLOUDY    47  46  94 NE10      30.01R
6HR MIN TEMP:  44; 6HR MAX TEMP:  48;

KALAMAZOO      CLOUDY    51  46  83 NE6       30.00R
6HR MIN TEMP:  47; 6HR MAX TEMP:  51;

LUDINGTON      CLOUDY    51  42  71 NE8G20    30.05S
6HR MIN TEMP:  43; 6HR MAX TEMP:  51;

MARSHALL       CLOUDY    50  47  90 CALM      29.98S
6HR MIN TEMP:  46; 6HR MAX TEMP:  50;

MOUNT PLEASANT CLOUDY    47  44  90 NE12      30.04S
6HR MIN TEMP:  43; 6HR MAX TEMP:  47; 6HR PCP:  0.01;

MUSKEGON       CLOUDY    57  44  62 NE14      30.00F
6HR MIN TEMP:  46; 6HR MAX TEMP:  57;

SOUTH HAVEN    CLOUDY    52  48  86 NE5       29.99S
$$
MIZ016>042-011900-
NORTHERN LOWER MICHIGAN

CITY           SKY/WX    TMP DP  RH WIND       PRES   REMARKS
ALPENA         CLOUDY    52  38  58 NE12      30.11F
6HR MIN TEMP:  43; 6HR MAX TEMP:  53; 6HR PCP:  0.03;

BEAVER ISLAND  CLOUDY    54  33  44 E10       30.14S
6HR MIN TEMP:  45; 6HR MAX TEMP:  55;

BELLAIRE       LGT RAIN  51  42  69 NE10G20   30.10S
6HR MIN TEMP:  46; 6HR MAX TEMP:  51;

CADILLAC       CLOUDY    47  43  84 NE17G23   30.05S
CHARLEVOIX     CLOUDY    55  38  52 E10G17    30.14F
FRANKFORT      CLOUDY    53  42  65 E12       30.08S
GAYLORD        CLOUDY    50  39  66 E12G24    30.09F
6HR MIN TEMP:  45; 6HR MAX TEMP:  50; 6HR PCP:  0.04;

GRAYLING       CLOUDY    48  43  81 NE14      30.09S
HARBOR SPRINGS CLOUDY    55  37  51 E16G24    30.11F
HOUGHTON LAKE  CLOUDY    50  41  71 E17G24    30.06F
6HR MIN TEMP:  43; 6HR MAX TEMP:  50; 6HR PCP:  0.02;

MANISTEE       CLOUDY    54  39  58 E15G22    30.06F
OSCODA         CLOUDY    48  40  75 NE13      30.08S
6HR MIN TEMP:  43; 6HR MAX TEMP:  48; 6HR PCP:  0.07;

PELLSTON       CLOUDY    54  35  48 NE8G17    30.13F
6HR MIN TEMP:  47; 6HR MAX TEMP:  55;

ROGERS CITY    CLOUDY    45  35  67 N7        30.13F
TRAVERSE CITY  CLOUDY    51  41  68 E9        30.08F
6HR MIN TEMP:  43; 6HR MAX TEMP:  51; 6HR PCP:  0.02;

$$
MIZ007>008-015-011900-
EASTERN UPPER MICHIGAN

CITY           SKY/WX    TMP DP  RH WIND       PRES   REMARKS
KINROSS          N/A     57  27  30 NE6       30.12F
6HR MIN TEMP:  45; 6HR MAX TEMP:  57;

MACKINAC ISLAN CLOUDY    52  29  42 E8        30.14F
6HR MIN TEMP:  45; 6HR MAX TEMP:  52;

NEWBERRY       MOSUNNY   58  33  38 E6        30.12F
6HR MIN TEMP:  40; 6HR MAX TEMP:  58;

S. S. MARIE    MOSUNNY   60  32  34 S8        30.11F
6HR MIN TEMP:  47; 6HR MAX TEMP:  60;

MUNISING         N/A     45  36  70 NE10      30.16F
6HR MIN TEMP:  34; 6HR MAX TEMP:  45;

$$
MIZ004>006-011>014-085-011900-
CENTRAL UPPER MICHIGAN

CITY           SKY/WX    TMP DP  RH WIND       PRES   REMARKS
MANISTIQUE     MOSUNNY   55  32  41 SE12G18   30.13F
6HR MIN TEMP:  40; 6HR MAX TEMP:  55;

ESCANABA       SUNNY     54  32  43 SE14      30.13F
6HR MIN TEMP:  43; 6HR MAX TEMP:  55;

MENOMINEE      SUNNY     52  34  50 E13G18    30.12F
6HR MIN TEMP:  43; 6HR MAX TEMP:  52;

SAWYER-GWINN   MOSUNNY   50  34  53 NE15      30.17F
$$
MIZ001>003-009>011-084-011900-
WESTERN UPPER MICHIGAN

CITY           SKY/WX    TMP DP  RH WIND       PRES   REMARKS
IRON MOUNTAIN  MOSUNNY   61  29  29 E14G20    30.09F
6HR MIN TEMP:  39; 6HR MAX TEMP:  61;

HOUGHTON       SUNNY     51  34  52 E8        30.19F
6HR MIN TEMP:  41; 6HR MAX TEMP:  52;

COPPER HARBOR    N/A     43  37  79 VRB3      30.22F
6HR MIN TEMP:  40; 6HR MAX TEMP:  44;

IRONWOOD         N/A     48  37  66 N13G18    30.16F
6HR MIN TEMP:  36; 6HR MAX TEMP:  48;

$$

ABBREVIATIONS USED IN REMARKS
   TC - TEMPERATURE IN CELSIUS
  WCI - WIND CHILL INDEX
   HX - HEAT INDEX
  VSB - VISIBILITY





USA.gov is the U.S. government's official web portal to all federal, state and local government web resources and services.